DLH2FL LGAV-EDDM

Flight info

Callsign DLH2FL
Flight time 2h 13m
Altitude 36000
Route KOR UL613 XANIS DCT DIMIS DCT PETAK DCT GLOMY DCT ELTIB DCT GORPA DCT BERTA DCT RASTA DCT REDBU Q112 NAPSA NAPSA4A
Aircraft A320/M-SDE3FGHIRWY/LB1

Departure

Time 2026-05-06 11:08
Airport Athens Eleftherios Venizelos International Airport (LGAV)

Arrival

Time 2026-05-06 13:22
Airport Munich Airport (EDDM)
Time Latitude Longitude Altitude Speed Heading
2026-05-06 10:57 37.93794 23.95019 301 ft 0 kts 306°
2026-05-06 11:01 37.93793 23.95021 301 ft 2 kts 306°
2026-05-06 11:01 37.93777 23.95048 301 ft 4 kts 306°
2026-05-06 11:01 37.93767 23.95066 300 ft 4 kts 299°
2026-05-06 11:02 37.93759 23.95096 300 ft 4 kts 264°
2026-05-06 11:02 37.93767 23.95119 300 ft 2 kts 217°
2026-05-06 11:02 37.93781 23.95132 301 ft 0 kts 217°
2026-05-06 11:04 37.93759 23.95114 300 ft 10 kts 205°
2026-05-06 11:04 37.93676 23.95140 301 ft 14 kts 178°
2026-05-06 11:04 37.93591 23.95079 301 ft 15 kts 217°
2026-05-06 11:05 37.93513 23.95005 300 ft 14 kts 216°
2026-05-06 11:05 37.93409 23.94906 302 ft 22 kts 218°
2026-05-06 11:05 37.93280 23.94784 300 ft 24 kts 216°
2026-05-06 11:05 37.93140 23.94653 301 ft 26 kts 217°
2026-05-06 11:06 37.92996 23.94514 302 ft 26 kts 219°
2026-05-06 11:06 37.92848 23.94374 301 ft 27 kts 217°
2026-05-06 11:06 37.92695 23.94229 303 ft 28 kts 217°
2026-05-06 11:06 37.92546 23.94088 303 ft 22 kts 216°
2026-05-06 11:07 37.92442 23.94141 303 ft 18 kts 131°
2026-05-06 11:07 37.92410 23.94282 307 ft 16 kts 90°
2026-05-06 11:07 37.92443 23.94399 309 ft 15 kts 50°
2026-05-06 11:07 37.92523 23.94490 310 ft 19 kts 34°
2026-05-06 11:08 37.92775 23.94731 302 ft 80 kts 37°
2026-05-06 11:08 37.93384 23.95307 288 ft 136 kts 37°
2026-05-06 11:08 37.94250 23.96133 440 ft 165 kts 38°
2026-05-06 11:08 37.95151 23.96998 1147 ft 161 kts 40°
2026-05-06 11:09 37.96053 23.97879 1716 ft 170 kts 39°
2026-05-06 11:09 37.97038 23.98836 2081 ft 188 kts 38°
2026-05-06 11:09 37.98149 23.99858 2474 ft 206 kts 34°
2026-05-06 11:09 37.99444 24.00793 2823 ft 226 kts 15°
2026-05-06 11:10 38.01064 24.00695 3176 ft 249 kts 335°
2026-05-06 11:10 38.02392 23.99236 3705 ft 262 kts 298°
2026-05-06 11:10 38.02772 23.96990 4558 ft 265 kts 262°
2026-05-06 11:10 38.02064 23.94851 5447 ft 269 kts 233°
2026-05-06 11:11 38.00770 23.93121 6336 ft 273 kts 223°
2026-05-06 11:11 37.99311 23.91557 7178 ft 276 kts 220°
2026-05-06 11:11 37.97795 23.90031 7968 ft 280 kts 219°
2026-05-06 11:11 37.96263 23.88480 8793 ft 284 kts 221°
2026-05-06 11:12 37.94727 23.86880 9581 ft 288 kts 221°
2026-05-06 11:12 37.93188 23.85231 10339 ft 293 kts 222°
2026-05-06 11:12 37.91643 23.83424 10616 ft 314 kts 230°
2026-05-06 11:12 37.90343 23.81098 10828 ft 334 kts 244°
2026-05-06 11:13 37.89487 23.78322 11311 ft 343 kts 257°
2026-05-06 11:13 37.89166 23.75318 11965 ft 346 kts 271°
2026-05-06 11:13 37.89284 23.72307 12660 ft 348 kts 275°
2026-05-06 11:13 37.89443 23.69224 13370 ft 351 kts 276°
2026-05-06 11:14 37.89603 23.66129 14048 ft 354 kts 276°
2026-05-06 11:14 37.89762 23.63002 14688 ft 356 kts 276°
2026-05-06 11:14 37.89920 23.59868 15327 ft 358 kts 276°
2026-05-06 11:14 37.90077 23.56707 15962 ft 360 kts 276°
2026-05-06 11:15 37.90235 23.53527 16591 ft 362 kts 276°
2026-05-06 11:15 37.90391 23.50342 17213 ft 364 kts 276°
2026-05-06 11:15 37.90546 23.47131 17822 ft 366 kts 276°
2026-05-06 11:15 37.90704 23.43898 18423 ft 368 kts 276°
2026-05-06 11:16 37.90863 23.40656 18934 ft 370 kts 276°
2026-05-06 11:16 37.91022 23.37386 19427 ft 373 kts 276°
2026-05-06 11:16 37.91181 23.34095 19900 ft 375 kts 276°
2026-05-06 11:16 37.91338 23.30785 20396 ft 378 kts 276°
2026-05-06 11:17 37.91497 23.27448 20858 ft 381 kts 276°
2026-05-06 11:17 37.91656 23.24091 21328 ft 383 kts 277°
2026-05-06 11:17 37.91812 23.20711 21786 ft 386 kts 277°
2026-05-06 11:17 37.91969 23.17310 22237 ft 388 kts 277°
2026-05-06 11:18 37.92127 23.13885 22685 ft 391 kts 277°
2026-05-06 11:18 37.92287 23.10436 23128 ft 394 kts 277°
2026-05-06 11:18 37.92446 23.06958 23569 ft 396 kts 277°
2026-05-06 11:18 37.92604 23.03508 23928 ft 399 kts 277°
2026-05-06 11:19 37.92781 22.99993 24252 ft 400 kts 280°
2026-05-06 11:19 37.93347 22.96511 24614 ft 398 kts 290°
2026-05-06 11:19 37.94407 22.93332 24964 ft 397 kts 301°
2026-05-06 11:19 37.95951 22.90435 25317 ft 397 kts 311°
2026-05-06 11:20 37.97896 22.87952 25656 ft 398 kts 318°
2026-05-06 11:20 37.99948 22.85584 25990 ft 400 kts 317°
2026-05-06 11:20 38.02009 22.83195 26320 ft 403 kts 317°
2026-05-06 11:20 38.04080 22.80786 26645 ft 405 kts 317°
2026-05-06 11:21 38.06157 22.78367 26968 ft 407 kts 317°
2026-05-06 11:21 38.08252 22.75922 27235 ft 410 kts 317°
2026-05-06 11:21 38.10362 22.73456 27532 ft 413 kts 317°
2026-05-06 11:21 38.12480 22.70979 27845 ft 415 kts 317°
2026-05-06 11:22 38.14612 22.68495 28154 ft 417 kts 317°
2026-05-06 11:22 38.16759 22.66003 28461 ft 419 kts 317°
2026-05-06 11:22 38.18920 22.63491 28742 ft 421 kts 317°
2026-05-06 11:22 38.21086 22.60968 29024 ft 423 kts 317°
2026-05-06 11:23 38.23265 22.58432 29301 ft 425 kts 317°
2026-05-06 11:23 38.25454 22.55888 29606 ft 426 kts 317°
2026-05-06 11:23 38.27644 22.53334 29888 ft 428 kts 317°
2026-05-06 11:23 38.29845 22.50763 30154 ft 430 kts 316°
2026-05-06 11:24 38.32049 22.48187 30390 ft 431 kts 316°
2026-05-06 11:24 38.34226 22.45641 30706 ft 430 kts 316°
2026-05-06 11:24 38.36429 22.43062 30993 ft 430 kts 316°
2026-05-06 11:24 38.38631 22.40481 31280 ft 430 kts 316°
2026-05-06 11:25 38.40832 22.37900 31590 ft 429 kts 316°
2026-05-06 11:25 38.43030 22.35319 31915 ft 429 kts 316°
2026-05-06 11:25 38.45217 22.32745 32241 ft 428 kts 316°
2026-05-06 11:25 38.47400 22.30177 32556 ft 427 kts 316°
2026-05-06 11:26 38.49588 22.27605 32888 ft 426 kts 315°
2026-05-06 11:26 38.51767 22.25042 33194 ft 426 kts 315°
2026-05-06 11:26 38.53939 22.22482 33506 ft 425 kts 315°
2026-05-06 11:26 38.56105 22.19920 33822 ft 424 kts 315°
2026-05-06 11:27 38.58282 22.17384 34134 ft 423 kts 317°
2026-05-06 11:27 38.60527 22.14945 34289 ft 424 kts 319°
2026-05-06 11:27 38.62827 22.12582 34563 ft 424 kts 319°
2026-05-06 11:27 38.65147 22.10260 34810 ft 424 kts 320°
2026-05-06 11:28 38.67473 22.07938 35042 ft 423 kts 319°
2026-05-06 11:28 38.69785 22.05608 35323 ft 423 kts 319°
2026-05-06 11:28 38.72079 22.03264 35591 ft 421 kts 319°
2026-05-06 11:28 38.74359 22.00906 35840 ft 420 kts 319°
2026-05-06 11:29 38.76628 21.98543 36033 ft 420 kts 319°
2026-05-06 11:29 38.81141 21.93834 36095 ft 419 kts 319°
2026-05-06 11:30 38.85657 21.89131 36102 ft 418 kts 319°
2026-05-06 11:30 38.90158 21.84432 36098 ft 418 kts 318°
2026-05-06 11:31 38.94681 21.79708 36111 ft 417 kts 318°
2026-05-06 11:31 38.99196 21.74986 36098 ft 419 kts 318°
2026-05-06 11:32 39.03700 21.70267 36096 ft 419 kts 318°
2026-05-06 11:32 39.08251 21.65500 36098 ft 419 kts 318°
2026-05-06 11:33 39.12738 21.60787 36094 ft 419 kts 318°
2026-05-06 11:33 39.17264 21.56019 36087 ft 419 kts 318°
2026-05-06 11:34 39.21772 21.51251 36103 ft 419 kts 318°
2026-05-06 11:34 39.26278 21.46481 36094 ft 419 kts 318°
2026-05-06 11:35 39.30793 21.41707 36097 ft 420 kts 318°
2026-05-06 11:35 39.35277 21.36957 36107 ft 419 kts 318°
2026-05-06 11:36 39.39786 21.32166 36115 ft 419 kts 318°
2026-05-06 11:36 39.44301 21.27365 36105 ft 419 kts 318°
2026-05-06 11:37 39.48799 21.22569 36115 ft 419 kts 318°
2026-05-06 11:37 39.53300 21.17756 36131 ft 419 kts 318°
2026-05-06 11:38 39.57793 21.12941 36126 ft 420 kts 317°
2026-05-06 11:38 39.62291 21.08117 36123 ft 420 kts 318°
2026-05-06 11:39 39.66802 21.03274 36134 ft 421 kts 318°
2026-05-06 11:39 39.71318 20.98426 36130 ft 421 kts 318°
2026-05-06 11:40 39.75823 20.93572 36138 ft 421 kts 318°
2026-05-06 11:40 39.80328 20.88705 36137 ft 421 kts 317°
2026-05-06 11:41 39.84806 20.83871 36138 ft 421 kts 318°
2026-05-06 11:41 39.89320 20.78990 36130 ft 421 kts 317°
2026-05-06 11:42 39.93826 20.74102 36117 ft 422 kts 317°
2026-05-06 11:42 39.98331 20.69200 36106 ft 422 kts 317°
2026-05-06 11:43 40.02839 20.64284 36100 ft 422 kts 317°
2026-05-06 11:43 40.07397 20.59455 36099 ft 424 kts 323°
2026-05-06 11:44 40.15119 20.53726 36098 ft 426 kts 328°
2026-05-06 11:44 40.20292 20.49938 36103 ft 426 kts 327°
2026-05-06 11:45 40.25466 20.46140 36105 ft 426 kts 327°
2026-05-06 11:45 40.30645 20.42338 36091 ft 427 kts 327°
2026-05-06 11:46 40.35786 20.38543 36085 ft 427 kts 327°
2026-05-06 11:46 40.40963 20.34716 36089 ft 427 kts 327°
2026-05-06 11:47 40.46151 20.30873 36093 ft 427 kts 327°
2026-05-06 11:47 40.51334 20.27039 36093 ft 427 kts 327°
2026-05-06 11:48 40.56513 20.23206 36088 ft 427 kts 327°
2026-05-06 11:48 40.60812 20.20003 36093 ft 427 kts 327°
2026-05-06 11:49 40.65986 20.16144 36084 ft 427 kts 327°
2026-05-06 11:49 40.71171 20.12278 36092 ft 429 kts 327°
2026-05-06 11:50 40.76368 20.08411 36084 ft 429 kts 327°
2026-05-06 11:50 40.81563 20.04518 36087 ft 430 kts 327°
2026-05-06 11:51 40.86763 20.00622 36102 ft 430 kts 327°
2026-05-06 11:51 40.91968 19.96714 36100 ft 430 kts 327°
2026-05-06 11:52 40.97163 19.92801 36096 ft 430 kts 327°
2026-05-06 11:52 41.02361 19.88884 36097 ft 430 kts 327°
2026-05-06 11:53 41.07560 19.84960 36100 ft 430 kts 327°
2026-05-06 11:53 41.12754 19.81037 36103 ft 430 kts 327°
2026-05-06 11:54 41.17949 19.77096 36105 ft 430 kts 327°
2026-05-06 11:54 41.23146 19.73141 36100 ft 431 kts 327°
2026-05-06 11:55 41.28314 19.69202 36096 ft 431 kts 327°
2026-05-06 11:55 41.33522 19.65238 36097 ft 431 kts 327°
2026-05-06 11:56 41.38731 19.61267 36099 ft 431 kts 327°
2026-05-06 11:56 41.43939 19.57280 36102 ft 431 kts 327°
2026-05-06 11:57 41.49140 19.53288 36099 ft 431 kts 327°
2026-05-06 11:57 41.54347 19.49295 36101 ft 431 kts 327°
2026-05-06 11:58 41.59554 19.45295 36109 ft 431 kts 326°
2026-05-06 11:58 41.64759 19.41278 36101 ft 432 kts 326°
2026-05-06 11:59 41.69919 19.37278 36101 ft 432 kts 326°
2026-05-06 11:59 41.75124 19.33249 36100 ft 432 kts 326°
2026-05-06 12:00 41.80278 19.29113 36112 ft 431 kts 323°
2026-05-06 12:00 41.85251 19.24647 36115 ft 430 kts 322°
2026-05-06 12:01 41.90184 19.20085 36113 ft 430 kts 322°
2026-05-06 12:01 41.95147 19.15579 36110 ft 431 kts 322°
2026-05-06 12:02 42.00133 19.11111 36109 ft 431 kts 322°
2026-05-06 12:02 42.05122 19.06635 36114 ft 431 kts 322°
2026-05-06 12:03 42.10104 19.02143 36109 ft 431 kts 322°
2026-05-06 12:03 42.15080 18.97632 36108 ft 431 kts 322°
2026-05-06 12:04 42.20059 18.93118 36098 ft 431 kts 322°
2026-05-06 12:04 42.25017 18.88614 36101 ft 432 kts 322°
2026-05-06 12:05 42.29988 18.84084 36099 ft 431 kts 322°
2026-05-06 12:05 42.34967 18.79543 36097 ft 431 kts 322°
2026-05-06 12:06 42.39943 18.75001 36112 ft 432 kts 322°
2026-05-06 12:06 42.44926 18.70443 36105 ft 432 kts 322°
2026-05-06 12:07 42.49900 18.65875 36110 ft 432 kts 322°
2026-05-06 12:07 42.54884 18.61292 36103 ft 432 kts 322°
2026-05-06 12:08 42.59863 18.56709 36098 ft 432 kts 322°
2026-05-06 12:08 42.64840 18.52122 36097 ft 432 kts 322°
2026-05-06 12:09 42.69821 18.47520 36098 ft 432 kts 322°
2026-05-06 12:09 42.74792 18.42908 36112 ft 432 kts 322°
2026-05-06 12:10 42.79765 18.38292 36098 ft 433 kts 322°
2026-05-06 12:10 42.84709 18.33697 36085 ft 433 kts 322°
2026-05-06 12:11 42.89691 18.29059 36077 ft 434 kts 322°
2026-05-06 12:11 42.94667 18.24414 36084 ft 433 kts 322°
2026-05-06 12:12 42.99646 18.19755 36077 ft 434 kts 322°
2026-05-06 12:12 43.04620 18.15088 36071 ft 434 kts 321°
2026-05-06 12:13 43.09589 18.10411 36064 ft 434 kts 322°
2026-05-06 12:13 43.14566 18.05736 36061 ft 433 kts 321°
2026-05-06 12:14 43.19536 18.01050 36064 ft 433 kts 322°
2026-05-06 12:14 43.24498 17.96359 36058 ft 433 kts 322°
2026-05-06 12:15 43.29468 17.91656 36054 ft 433 kts 322°
2026-05-06 12:15 43.34427 17.86953 36051 ft 433 kts 322°
2026-05-06 12:16 43.39386 17.82236 36051 ft 433 kts 322°
2026-05-06 12:16 43.44345 17.77515 36059 ft 433 kts 322°
2026-05-06 12:17 43.49301 17.72789 36040 ft 434 kts 322°
2026-05-06 12:17 43.54264 17.68043 36046 ft 435 kts 321°
2026-05-06 12:18 43.59104 17.63149 36047 ft 433 kts 318°
2026-05-06 12:18 43.63744 17.57864 36040 ft 433 kts 316°
2026-05-06 12:19 43.68355 17.52500 36033 ft 433 kts 317°
2026-05-06 12:19 43.73010 17.47198 36021 ft 434 kts 317°
2026-05-06 12:20 43.77696 17.41925 36036 ft 434 kts 317°
2026-05-06 12:20 43.82386 17.36636 36022 ft 435 kts 317°
2026-05-06 12:21 43.87064 17.31321 36020 ft 435 kts 317°
2026-05-06 12:21 43.91750 17.25994 36012 ft 435 kts 317°
2026-05-06 12:22 43.96429 17.20669 36009 ft 435 kts 317°
2026-05-06 12:22 44.01104 17.15332 36011 ft 435 kts 316°
2026-05-06 12:23 44.05781 17.09972 36008 ft 435 kts 316°
2026-05-06 12:23 44.10458 17.04604 35996 ft 436 kts 317°
2026-05-06 12:24 44.15099 16.99278 35995 ft 435 kts 316°
2026-05-06 12:24 44.19771 16.93907 36001 ft 435 kts 316°
2026-05-06 12:25 44.24436 16.88514 35992 ft 435 kts 315°
2026-05-06 12:25 44.29098 16.83113 35969 ft 436 kts 315°
2026-05-06 12:26 44.34022 16.78115 35966 ft 439 kts 321°
2026-05-06 12:26 44.39048 16.73270 35953 ft 439 kts 321°
2026-05-06 12:27 44.44065 16.68408 35974 ft 439 kts 320°
2026-05-06 12:27 44.49078 16.63527 35953 ft 439 kts 320°
2026-05-06 12:28 44.54093 16.58642 35952 ft 439 kts 320°
2026-05-06 12:28 44.59107 16.53750 35938 ft 439 kts 320°
2026-05-06 12:29 44.64121 16.48854 35949 ft 439 kts 320°
2026-05-06 12:29 44.69126 16.43956 35963 ft 439 kts 319°
2026-05-06 12:30 44.74132 16.39052 35961 ft 438 kts 319°
2026-05-06 12:30 44.79135 16.34132 35937 ft 438 kts 319°
2026-05-06 12:31 44.84125 16.29204 35937 ft 438 kts 319°
2026-05-06 12:31 44.89116 16.24277 35934 ft 438 kts 319°
2026-05-06 12:32 44.94080 16.19368 35953 ft 438 kts 319°
2026-05-06 12:32 44.99064 16.14409 35942 ft 438 kts 319°
2026-05-06 12:33 45.04049 16.09445 35943 ft 438 kts 319°
2026-05-06 12:33 45.09041 16.04473 35935 ft 439 kts 319°
2026-05-06 12:34 45.13189 16.00333 35935 ft 439 kts 319°
2026-05-06 12:34 45.18170 15.95343 35950 ft 439 kts 318°
2026-05-06 12:35 45.23162 15.90334 35934 ft 439 kts 318°
2026-05-06 12:35 45.28159 15.85325 35929 ft 440 kts 319°
2026-05-06 12:36 45.33155 15.80300 35929 ft 440 kts 319°
2026-05-06 12:36 45.38142 15.75261 35928 ft 440 kts 318°
2026-05-06 12:37 45.43127 15.70219 35939 ft 440 kts 319°
2026-05-06 12:37 45.48118 15.65161 35939 ft 440 kts 318°
2026-05-06 12:38 45.53098 15.60090 35938 ft 440 kts 318°
2026-05-06 12:38 45.58089 15.55013 35935 ft 440 kts 318°
2026-05-06 12:39 45.63069 15.49928 35930 ft 440 kts 318°
2026-05-06 12:39 45.68046 15.44837 35928 ft 440 kts 318°
2026-05-06 12:40 45.72988 15.39775 35932 ft 440 kts 318°
2026-05-06 12:40 45.77965 15.34654 35933 ft 440 kts 318°
2026-05-06 12:41 45.82896 15.29463 35931 ft 439 kts 317°
2026-05-06 12:41 45.87795 15.24227 35934 ft 439 kts 317°
2026-05-06 12:42 45.92697 15.18973 35933 ft 439 kts 317°
2026-05-06 12:42 45.97602 15.13722 35955 ft 440 kts 317°
2026-05-06 12:43 46.02518 15.08475 35950 ft 440 kts 317°
2026-05-06 12:43 46.07423 15.03221 35942 ft 439 kts 317°
2026-05-06 12:44 46.12316 14.97945 35936 ft 439 kts 317°
2026-05-06 12:44 46.17212 14.92664 35938 ft 439 kts 317°
2026-05-06 12:45 46.22105 14.87382 35948 ft 439 kts 317°
2026-05-06 12:46 46.29442 14.79444 35947 ft 438 kts 317°
2026-05-06 12:46 46.34291 14.74179 35946 ft 439 kts 317°
2026-05-06 12:47 46.39170 14.68863 35941 ft 438 kts 317°
2026-05-06 12:47 46.44036 14.63541 35918 ft 438 kts 317°
2026-05-06 12:48 46.48850 14.58146 35906 ft 437 kts 315°
2026-05-06 12:48 46.53578 14.52608 35885 ft 437 kts 315°
2026-05-06 12:49 46.58302 14.47030 35881 ft 438 kts 315°
2026-05-06 12:49 46.63018 14.41494 35874 ft 438 kts 315°
2026-05-06 12:50 46.67792 14.35927 35878 ft 438 kts 315°
2026-05-06 12:50 46.72535 14.30378 35918 ft 437 kts 315°
2026-05-06 12:51 46.77268 14.24820 35906 ft 436 kts 315°
2026-05-06 12:51 46.81989 14.19249 35896 ft 436 kts 314°
2026-05-06 12:52 46.86700 14.13670 35889 ft 436 kts 314°
2026-05-06 12:52 46.91412 14.08087 35884 ft 436 kts 314°
2026-05-06 12:53 46.96090 14.02540 35916 ft 436 kts 314°
2026-05-06 12:53 46.98471 13.99706 35574 ft 434 kts 313°
2026-05-06 12:53 47.00786 13.96947 35325 ft 435 kts 313°
2026-05-06 12:53 47.03139 13.94137 35082 ft 436 kts 313°
2026-05-06 12:54 47.05492 13.91328 34827 ft 437 kts 313°
2026-05-06 12:54 47.07847 13.88517 34583 ft 437 kts 313°
2026-05-06 12:54 47.10203 13.85703 34340 ft 437 kts 313°
2026-05-06 12:54 47.12561 13.82886 34094 ft 437 kts 313°
2026-05-06 12:55 47.14919 13.80063 33833 ft 437 kts 313°
2026-05-06 12:55 47.17278 13.77234 33558 ft 438 kts 313°
2026-05-06 12:55 47.19632 13.74399 33293 ft 438 kts 312°
2026-05-06 12:55 47.21997 13.71542 33076 ft 441 kts 312°
2026-05-06 12:56 47.24372 13.68674 32797 ft 442 kts 312°
2026-05-06 12:56 47.26750 13.65806 32516 ft 443 kts 312°
2026-05-06 12:56 47.29137 13.62926 32244 ft 443 kts 312°
2026-05-06 12:56 47.31489 13.60083 31989 ft 444 kts 312°
2026-05-06 12:57 47.33882 13.57184 31713 ft 444 kts 312°
2026-05-06 12:57 47.36264 13.54298 31445 ft 442 kts 312°
2026-05-06 12:57 47.38635 13.51428 31194 ft 440 kts 313°
2026-05-06 12:57 47.41005 13.48555 30942 ft 439 kts 313°
2026-05-06 12:58 47.43363 13.45691 30692 ft 438 kts 313°
2026-05-06 12:58 47.45709 13.42833 30462 ft 437 kts 312°
2026-05-06 12:58 47.48045 13.39979 30216 ft 435 kts 312°
2026-05-06 12:58 47.50376 13.37132 29974 ft 434 kts 313°
2026-05-06 12:59 47.52707 13.34299 29709 ft 432 kts 313°
2026-05-06 12:59 47.55027 13.31489 29392 ft 430 kts 313°
2026-05-06 12:59 47.57344 13.28691 29127 ft 429 kts 313°
2026-05-06 12:59 47.59651 13.25899 28836 ft 428 kts 313°
2026-05-06 13:00 47.61955 13.23108 28558 ft 426 kts 313°
2026-05-06 13:00 47.64248 13.20324 28281 ft 425 kts 313°
2026-05-06 13:00 47.66537 13.17539 28003 ft 424 kts 313°
2026-05-06 13:00 47.68780 13.14800 27747 ft 423 kts 313°
2026-05-06 13:01 47.71055 13.12016 27474 ft 424 kts 313°
2026-05-06 13:01 47.73330 13.09227 27216 ft 424 kts 313°
2026-05-06 13:01 47.75606 13.06436 26954 ft 424 kts 313°
2026-05-06 13:01 47.77876 13.03654 26694 ft 422 kts 313°
2026-05-06 13:02 47.80140 13.00878 26437 ft 421 kts 313°
2026-05-06 13:02 47.82393 12.98109 26215 ft 420 kts 313°
2026-05-06 13:02 47.84644 12.95341 25961 ft 418 kts 313°
2026-05-06 13:02 47.86883 12.92586 25712 ft 417 kts 313°
2026-05-06 13:03 47.89117 12.89836 25458 ft 416 kts 313°
2026-05-06 13:03 47.91342 12.87095 25211 ft 414 kts 313°
2026-05-06 13:03 47.93546 12.84345 24980 ft 411 kts 311°
2026-05-06 13:03 47.95517 12.81301 24739 ft 404 kts 302°
2026-05-06 13:04 47.97144 12.77933 24541 ft 397 kts 294°
2026-05-06 13:04 47.98541 12.74387 24299 ft 396 kts 293°
2026-05-06 13:04 47.99938 12.70851 24060 ft 395 kts 294°
2026-05-06 13:04 48.01342 12.67326 23830 ft 394 kts 294°
2026-05-06 13:05 48.02747 12.63812 23601 ft 393 kts 294°
2026-05-06 13:05 48.04128 12.60355 23368 ft 392 kts 294°
2026-05-06 13:05 48.05523 12.56854 23099 ft 391 kts 294°
2026-05-06 13:05 48.06916 12.53359 22826 ft 390 kts 294°
2026-05-06 13:06 48.08307 12.49882 22548 ft 389 kts 294°
2026-05-06 13:06 48.09693 12.46415 22267 ft 388 kts 294°
2026-05-06 13:06 48.11076 12.42955 22010 ft 387 kts 294°
2026-05-06 13:06 48.12469 12.39514 21738 ft 387 kts 297°
2026-05-06 13:07 48.14153 12.36334 21466 ft 393 kts 308°
2026-05-06 13:07 48.16229 12.33624 21221 ft 400 kts 319°
2026-05-06 13:07 48.18644 12.31499 20961 ft 405 kts 329°
2026-05-06 13:07 48.21188 12.29689 20705 ft 404 kts 329°
2026-05-06 13:08 48.23602 12.27619 20445 ft 395 kts 317°
2026-05-06 13:08 48.25565 12.24835 20195 ft 384 kts 303°
2026-05-06 13:08 48.27005 12.21531 19925 ft 374 kts 290°
2026-05-06 13:08 48.27901 12.17919 19375 ft 366 kts 278°
2026-05-06 13:09 48.28221 12.14178 18825 ft 359 kts 265°
2026-05-06 13:09 48.28041 12.10472 18287 ft 355 kts 259°
2026-05-06 13:09 48.27762 12.06792 17721 ft 355 kts 258°
2026-05-06 13:09 48.27483 12.03109 17104 ft 355 kts 259°
2026-05-06 13:10 48.27206 11.99431 16503 ft 355 kts 259°
2026-05-06 13:10 48.26928 11.95750 15911 ft 354 kts 259°
2026-05-06 13:10 48.26650 11.92073 15331 ft 354 kts 259°
2026-05-06 13:10 48.26373 11.88412 14763 ft 353 kts 260°
2026-05-06 13:11 48.26094 11.84753 14208 ft 352 kts 260°
2026-05-06 13:11 48.25819 11.81157 13662 ft 349 kts 260°
2026-05-06 13:11 48.25550 11.77622 13053 ft 333 kts 260°
2026-05-06 13:11 48.25293 11.74238 12451 ft 320 kts 260°
2026-05-06 13:12 48.25043 11.70982 11859 ft 309 kts 260°
2026-05-06 13:12 48.24797 11.67823 11277 ft 300 kts 260°
2026-05-06 13:12 48.24559 11.64753 10708 ft 293 kts 260°
2026-05-06 13:12 48.24323 11.61745 10158 ft 287 kts 261°
2026-05-06 13:13 48.24090 11.58782 9711 ft 285 kts 261°
2026-05-06 13:13 48.23855 11.55832 9320 ft 285 kts 261°
2026-05-06 13:13 48.23619 11.52884 8928 ft 284 kts 261°
2026-05-06 13:13 48.23385 11.49949 8536 ft 283 kts 261°
2026-05-06 13:14 48.23151 11.47022 8156 ft 282 kts 261°
2026-05-06 13:14 48.22917 11.44117 7768 ft 280 kts 261°
2026-05-06 13:14 48.22681 11.41219 7403 ft 279 kts 261°
2026-05-06 13:14 48.22508 11.38332 7033 ft 279 kts 271°
2026-05-06 13:15 48.23032 11.35555 6697 ft 279 kts 300°
2026-05-06 13:15 48.24348 11.33473 6448 ft 275 kts 328°
2026-05-06 13:15 48.26118 11.32525 6215 ft 269 kts 351°
2026-05-06 13:15 48.27952 11.32179 5958 ft 263 kts 360°
2026-05-06 13:16 48.29689 11.32742 5699 ft 253 kts 30°
2026-05-06 13:16 48.30968 11.34455 5438 ft 245 kts 61°
2026-05-06 13:16 48.31339 11.36851 5192 ft 236 kts 96°
2026-05-06 13:16 48.31216 11.39247 4995 ft 230 kts 88°
2026-05-06 13:17 48.31384 11.41569 4985 ft 218 kts 83°
2026-05-06 13:17 48.31578 11.43753 4991 ft 205 kts 84°
2026-05-06 13:17 48.31754 11.45865 4999 ft 201 kts 85°
2026-05-06 13:17 48.31921 11.47944 4968 ft 200 kts 85°
2026-05-06 13:18 48.32085 11.49983 4790 ft 193 kts 84°
2026-05-06 13:18 48.32243 11.51967 4543 ft 188 kts 84°
2026-05-06 13:18 48.32397 11.53897 4294 ft 184 kts 84°
2026-05-06 13:18 48.32548 11.55791 4052 ft 181 kts 83°
2026-05-06 13:19 48.32695 11.57652 3818 ft 179 kts 83°
2026-05-06 13:19 48.32848 11.59492 3601 ft 176 kts 83°
2026-05-06 13:19 48.33000 11.61324 3331 ft 178 kts 83°
2026-05-06 13:19 48.33134 11.63129 3148 ft 170 kts 82°
2026-05-06 13:20 48.33273 11.64880 2894 ft 167 kts 82°
2026-05-06 13:20 48.33418 11.66616 2650 ft 166 kts 82°
2026-05-06 13:20 48.33546 11.68287 2428 ft 156 kts 82°
2026-05-06 13:20 48.33666 11.69864 2222 ft 148 kts 82°
2026-05-06 13:21 48.33744 11.70873 2093 ft 147 kts 81°
2026-05-06 13:21 48.33865 11.72410 1884 ft 149 kts 81°
2026-05-06 13:21 48.33981 11.73963 1695 ft 151 kts 81°
2026-05-06 13:21 48.34108 11.75545 1517 ft 152 kts 82°
2026-05-06 13:22 48.34220 11.77014 1475 ft 126 kts 83°
2026-05-06 13:22 48.34304 11.78162 1485 ft 96 kts 84°
2026-05-06 13:22 48.34362 11.78918 1478 ft 45 kts 80°
2026-05-06 13:22 48.34495 11.79290 1477 ft 36 kts 52°
2026-05-06 13:23 48.34625 11.79540 1478 ft 29 kts 54°
2026-05-06 13:23 48.34730 11.79717 1478 ft 19 kts 21°
2026-05-06 13:23 48.34841 11.79695 1473 ft 16 kts 353°
2026-05-06 13:23 48.34960 11.79672 1477 ft 18 kts 343°
2026-05-06 13:24 48.35072 11.79588 1485 ft 19 kts 351°
2026-05-06 13:24 48.35208 11.79561 1485 ft 20 kts 354°
2026-05-06 13:24 48.35330 11.79521 1480 ft 15 kts 302°
2026-05-06 13:24 48.35359 11.79392 1474 ft 11 kts 279°
2026-05-06 13:25 48.35355 11.79327 1480 ft 0 kts 261°
2026-05-06 13:25 48.35355 11.79326 1480 ft 1 kts 261°
2026-05-06 13:26 48.35354 11.79320 1475 ft 0 kts 261°